Home   Weather   Hamburg   Past weeks

Flag for Germany Past Weather in Hamburg, Hamburg, Germany — Yesterday and Last 2 Weeks

Now
34 °F

Drizzle. Fog.


Feels Like: 30 °F
Forecast: 28 / 35 °F
Wind: 5 mph from Southwest

Location: Hamburg-Fuhlsbuettel

Current Time: Jan 20, 2017 at 10:55:19 am

Latest Report: Jan 20, 2017 at 10:20 am


Visibility: 1 mi

Pressure: 30.60 "Hg

Humidity: 100%

Dew Point: 34 °F

Location of HamburgLocation

Past Weather in Hamburg — Graph

°F

Hamburg Temperature Yesterday

Maximum temperature yesterday: 36 °F (at 1:50 pm)
Minimum temperature yesterday: 27 °F (at 1:20 am)
Average temperature yesterday: 32 °F

High & Low Weather Summary for the Past Weeks

 TemperatureHumidityPressure
High45 °F (Jan 11, 4:20 pm)100% (Jan 6, 5:20 am)30.77 "Hg (Jan 6, 5:20 am)
Low12 °F (Jan 6, 5:20 am)59% (Jan 5, 10:50 am)29.06 "Hg (Jan 13, 4:50 am)
Average31 °F88%30.15 "Hg
* Reported Jan 5 9:20 am — Jan 20 9:20 am, Hamburg, Weather by CustomWeather, © 2017

Note: Actual official high and low records may vary slightly from our data, if they occured in-between our weather recording intervals... More about our weather records

Advertising

Hamburg Weather History for the Previous 24 Hours

Scroll right to see more
 ConditionsComfort  
Time TempWeatherWind HumidityBarometerVisibility
9:20 am
Fri, Jan 20
34 °FFog.3 mph93%30.60 "Hg1 mi
8:50 am34 °FDrizzle. Fog.3 mph93%30.60 "Hg1 mi
8:20 am34 °FFog.1 mph93%30.60 "Hg2 mi
7:50 am34 °FFog.1 mph93%30.60 "Hg2 mi
7:20 am34 °FFog.3 mph93%30.57 "Hg2 mi
6:50 am32 °FDrizzle. Ice fog.No wind100%30.57 "Hg2 mi
6:20 am34 °FDrizzle. Fog.No wind87%30.57 "Hg3 mi
5:50 am34 °FDrizzle. Low clouds.1 mph87%30.60 "Hg4 mi
5:20 am34 °FPassing clouds.2 mph87%30.60 "HgN/A
4:50 am34 °FPassing clouds.3 mph81%30.60 "HgN/A
4:20 am34 °FPassing clouds.3 mph81%30.60 "HgN/A
3:50 am34 °FPassing clouds.No wind81%30.60 "HgN/A
3:20 am34 °FPassing clouds.No wind81%30.60 "HgN/A
2:50 am34 °FOvercast.3 mph81%30.60 "HgN/A
2:20 am32 °FPassing clouds.No wind87%30.60 "HgN/A
1:50 am32 °FPassing clouds.No wind87%30.60 "HgN/A
1:20 am32 °FPassing clouds.No wind87%30.63 "HgN/A
12:50 am34 °FPassing clouds.No wind75%30.63 "HgN/A
12:20 am32 °FPassing clouds.No wind87%30.63 "HgN/A
11:50 pm
Thu, Jan 19
32 °FPassing clouds.No wind80%30.63 "HgN/A
11:20 pm32 °FPassing clouds.3 mph80%30.63 "HgN/A
10:50 pm32 °FPassing clouds.5 mph80%30.63 "HgN/A
10:20 pm32 °FPassing clouds.3 mph80%30.63 "HgN/A
9:50 pm32 °FPassing clouds.6 mph80%30.63 "HgN/A
9:20 pm34 °FPassing clouds.7 mph81%30.63 "HgN/A
8:50 pm34 °FLow clouds.5 mph75%30.63 "HgN/A
8:20 pm34 °FLow clouds.5 mph81%30.63 "HgN/A
7:50 pm34 °FPassing clouds.5 mph75%30.63 "HgN/A
7:20 pm34 °FPassing clouds.6 mph75%30.63 "HgN/A
6:50 pm34 °FPassing clouds.5 mph70%30.63 "HgN/A
6:20 pm34 °FPassing clouds.3 mph75%30.63 "HgN/A
5:50 pm34 °FPartly cloudy.6 mph75%30.63 "HgN/A
5:20 pm34 °FPassing clouds.5 mph75%30.63 "HgN/A
4:50 pm36 °FPartly cloudy.6 mph70%30.63 "HgN/A
4:20 pm36 °FBroken clouds.3 mph70%30.63 "HgN/A
3:50 pm36 °FBroken clouds.5 mph65%30.63 "HgN/A
3:20 pm36 °FPartly sunny.3 mph65%30.63 "HgN/A
2:50 pm36 °FPartly sunny.6 mph65%30.63 "HgN/A
2:20 pm36 °FPartly sunny.5 mph65%30.63 "HgN/A
1:50 pm36 °FPartly sunny.6 mph65%30.63 "HgN/A
1:20 pm34 °FPartly sunny.5 mph70%30.66 "HgN/A
12:50 pm34 °FPartly sunny.5 mph75%30.66 "HgN/A
12:20 pm34 °FPartly sunny.7 mph70%30.66 "HgN/A
11:50 am32 °FPartly sunny.7 mph75%30.66 "HgN/A
11:20 am32 °FPartly sunny.7 mph80%30.66 "HgN/A
10:50 am32 °FPartly sunny.6 mph80%30.66 "HgN/A
10:20 am32 °FPartly sunny.6 mph80%30.66 "HgN/A
Weather by CustomWeather, © 2017

See weather overviewHow to use our weather pages